MDT,Max TemperatureF,Mean TemperatureF,Min TemperatureF,Max Dew PointF,MeanDew PointF,Min DewpointF,Max Humidity, Mean Humidity, Min Humidity, Max Sea Level PressureIn, Mean Sea Level PressureIn, Min Sea Level PressureIn, Max VisibilityMiles, Mean VisibilityMiles, Min VisibilityMiles, Max Wind SpeedMPH, Mean Wind SpeedMPH, Max Gust SpeedMPH,PrecipitationIn, CloudCover, Events, WindDirDegrees
2013-6-1,97,85,72,41,22,8,25,16,6,29.77,29.70,29.62,10,10,10,26,12,36,0.00,0,,57
2013-6-2,96,83,70,58,48,41,49,35,20,29.90,29.77,29.61,10,10,2,36,13,46,T,3,Rain-Thunderstorm,117
2013-6-3,98,82,65,56,41,11,73,39,5,29.83,29.72,29.60,10,10,10,23,8,33,0.00,1,,196
2013-6-4,100,84,67,44,31,18,40,23,6,29.75,29.68,29.63,10,10,10,23,10,30,0.00,0,,249
2013-6-5,99,86,73,33,23,14,21,14,6,29.99,29.68,29.60,10,10,10,22,9,28,0.00,1,,249
2013-6-6,93,81,69,47,41,21,44,28,12,29.98,29.74,29.65,10,9,1,35,7,40,0.00,1,,96
2013-6-7,94,82,69,57,50,36,66,41,16,29.86,29.74,29.60,10,10,2,41,10,62,T,4,Rain-Thunderstorm,101
2013-6-8,101,83,64,52,39,20,63,35,7,29.75,29.64,29.51,10,9,5,33,9,45,0.00,2,,211
2013-6-9,99,88,77,48,41,21,36,22,8,29.73,29.67,29.50,10,10,10,38,10,47,0.00,2,,56
2013-6-10,104,90,75,48,43,32,38,25,11,29.91,29.74,29.65,10,10,10,22,6,28,0.00,1,Thunderstorm,133
2013-6-11,104,90,75,45,37,27,30,19,7,29.80,29.72,29.61,10,10,10,18,6,24,0.00,1,,140
2013-6-12,106,92,77,51,41,30,35,23,10,29.79,29.72,29.63,10,10,10,21,8,26,0.00,1,,119
2013-6-13,98,86,74,57,53,40,54,34,14,29.91,29.76,29.67,10,10,7,26,9,32,0.00,2,,102
2013-6-14,95,83,70,63,55,49,61,42,23,29.94,29.78,29.64,10,9,1,38,8,52,0.10,4,Rain-Thunderstorm,96
2013-6-15,98,83,67,61,52,42,73,45,16,30.05,29.79,29.67,10,10,10,16,5,21,T,4,Rain-Thunderstorm,139
2013-6-16,101,89,76,51,47,43,43,29,14,30.01,29.78,29.68,10,10,10,25,8,31,T,5,Rain-Thunderstorm,323
2013-6-17,100,89,77,63,50,44,45,31,16,29.96,29.75,29.65,10,10,10,26,9,35,0.02,3,Rain-Thunderstorm,159
2013-6-18,99,85,70,59,52,43,57,37,16,29.86,29.75,29.65,10,10,10,20,7,25,0.00,1,,113
2013-6-19,104,91,77,59,46,31,50,29,8,29.86,29.65,29.55,10,9,4,25,10,32,T,2,,181
2013-6-20,103,91,79,52,45,34,36,24,12,29.90,29.72,29.62,10,10,5,35,13,44,T,4,Rain-Thunderstorm,172
2013-6-21,103,88,72,53,48,39,49,31,12,29.83,29.73,29.64,10,10,10,29,8,38,0.00,4,,166
2013-6-22,102,90,77,55,41,23,42,26,9,29.79,29.70,29.59,10,10,10,23,10,29,0.00,6,,217
2013-6-23,101,89,77,51,36,19,39,24,8,29.73,29.66,29.57,10,10,10,23,9,33,0.00,3,,203
2013-6-24,100,89,78,48,38,32,23,17,11,29.90,29.69,29.62,10,10,10,28,9,33,0.00,4,Rain-Thunderstorm,246
2013-6-25,101,90,79,44,30,16,22,14,6,29.80,29.74,29.68,10,10,10,22,9,28,0.00,2,,266
2013-6-26,104,91,77,25,16,12,13,9,4,29.82,29.76,29.70,10,10,10,23,9,28,0.00,0,,280
2013-6-27,107,90,73,39,18,8,16,10,4,29.83,29.76,29.70,10,10,10,16,5,25,0.00,1,,135
2013-6-28,101,90,78,42,38,34,26,19,11,29.94,29.85,29.79,10,10,10,16,6,21,0.00,4,,114
2013-6-29,103,89,74,44,41,34,29,20,10,29.88,29.80,29.71,10,10,10,24,7,33,0.00,4,,153
2013-6-30,98,84,69,59,47,37,42,30,17,30.06,29.81,29.66,10,10,2,44,11,55,0.04,5,Rain,76